COSMOS 2491 DEB, 45130

Orbit data source: Space-Track

COSMOS 2491 DEB, 45130 is space debris in LEO originally from a launch on Wed, 25 Dec 2013 UTC launched from the Plesetsk Missile And Space Complex (PKMTR). Debris objects in space refer to the collection of defunct objects orbiting the Earth. Examples of debris include non-operational satellites, rocket bodies, and fragments generated from explosions, collisions, or faulty payload assembly.

Loading next visibility...
Identifier
45130, 2013-076AC
Orbit
LEO
Country
Flag of CISCIS
Related business
Manufacturer
TsNIIKhM
Mission
Spacecraft
Bus & Motor
Unknown
Mass
Unknown
Launch date (UTC)
2013-12-25 (12 years ago)
Launch vehicle
Unknown
Launch site
Plesetsk Missile And Space Complex (PKMTR)
Object type
Payload
Rocket body
Debris
Shape & HBR
Unknown shape, 0.1 m
Radar Cross Section
Small (<0.1 m²)

Expand to show TLE details & history
Last TLE update: 21 hours ago

TLE from 21 hours ago
0 COSMOS 2491 DEB
1 45130U 13076AC  25310.57949031  .00002822  00000-0  13353-1 0  9999
2 45130  82.4463 249.2088 0159649 295.1936  63.2679 12.70659587266405
Epoch: 2025-11-06T13:54Z
TLE epoch observation values (Epoch: 2025-11-06T13:54:27.962Z)
Latitude
0.00001°
Longitude
-5.44349°
Altitude
1,327.87 km
Speed
7.219 km/s
True Right ascension
16h 36m 50s
True Declination
0° 00' 00"
Sunlit
Object was in daylight at epoch
Visualization orbit readout
Latitude
Unknown
Longitude
Unknown
Altitude
Unknown
Speed
Unknown
Apparent Right ascension
Unknown
Apparent Declination
Unknown
Sunlit
N/A
Visualization observer readout
Local Sidereal Time
06:55:31
Azimuth
Unknown
Elevation
Unknown
Doppler factor
Unknown
Orbital elements
Apogee altitude
1,500.37 km
Perigee altitude
1,252.764 km
Semi-major axis
7,754.704 km
Eccentricity
0.01596
Inclination
82.4463°
RAAN
249.2088°
Arg. of periapsis
295.1936°
True anomaly
64.91638°
Mean anomaly
63.2679°
Eccentric anomaly
64.09068°
Mean motion
3.1783 °/min
Orbital period
113.27 mins
BSTAR
0.013353
Loading maneuver chart data...
Computing Atmospheric mass density...
Loading historical data...
Loading historical data...
Loading historical data...
Loading historical data...
Loading historical data...
Loading historical data...
Loading historical data...

Documentation

Showing up to 5 results
|